Location: Del Oro Observatory
(38.3044°N, 104.8119°W)
Time: 02:55:38
(UTC-06:00)

Cosmos 1602 Rocket - Visible Passes

Search period start: 22 April 2018 00:00
Search period end: 02 May 2018 00:00
Orbit: 603 x 634 km, 82.5° (Epoch: 21 April)

Date Brightness Start Highest point End Pass type
(mag) Time Alt. Az. Time Alt. Az. Time Alt. Az.
22 Apr 3.5 04:30:58 26° S 04:33:21 82° E 04:37:41 10° N visible
23 Apr 6.3 03:11:45 10° ESE 03:13:16 12° E 03:14:46 10° ENE visible
23 Apr 3.7 04:48:31 27° SW 04:50:35 50° W 04:54:49 10° N visible
24 Apr 5.6 03:28:52 19° ESE 03:30:14 22° E 03:33:35 10° NE visible
24 Apr 4.6 05:06:02 19° WSW 05:07:56 26° WNW 05:11:35 10° NNW visible
25 Apr 4.5 03:46:19 36° SE 03:47:18 42° E 03:51:23 10° NNE visible
25 Apr 5.4 05:23:28 11° W 05:25:22 14° WNW 05:27:43 10° NW visible
26 Apr 3.4 04:03:44 61° S 04:04:28 85° E 04:08:48 10° N visible
27 Apr 6.2 02:43:58 12° E 02:44:21 12° E 02:46:04 10° ENE visible
27 Apr 3.8 04:21:08 44° WSW 04:21:43 47° W 04:25:54 10° N visible
28 Apr 5.5 03:01:20 23° E 03:01:20 23° E 03:04:45 10° NE visible
28 Apr 4.7 04:38:29 24° W 04:39:03 25° WNW 04:42:39 10° NNW visible
29 Apr 4.4 03:18:40 44° E 03:18:40 44° E 03:22:31 10° NNE visible
29 Apr 5.4 04:55:49 13° W 04:56:30 14° WNW 04:58:42 10° NW visible
30 Apr 3.6 03:35:59 73° N 03:35:59 73° N 03:39:54 10° N visible
01 May 6.3 02:16:07 12° ENE 02:16:07 12° ENE 02:17:20 10° ENE visible
01 May 4.0 03:53:16 44° WNW 03:53:16 44° WNW 03:56:59 10° N visible
